Regional Weather Roundup
Issued by NWS Cleveland, OH

Home | Current Version | Previous Version | Graphics & Text | Print | Product List | Glossary On
Versions: 1 2 3 4 5 6 7 8 9 10 11 12 13 14 15 16 17 18 19 20 21 22 23 24 25 26 27 28 29 30 31 32 33 34 35 36 37 38 39 40 41 42 43 44 45 46 47 48 49 50
000
ASUS41 KCLE 240410
RWRCLE
OHIO REGIONAL WEATHER ROUNDUP
NATIONAL WEATHER SERVICE WILMINGTON, OH
1100 PM EST TUE JAN 23 2018

NOTE: "FAIR" INDICATES FEW OR NO CLOUDS BELOW 12,000 FEET WITH NO
SIGNIFICANT WEATHER AND/OR OBSTRUCTIONS TO VISIBILITY.

OHZ001>008-015>018-024>027-034-035-043-044-240500-
   NORTHWEST OHIO

CITY           SKY/WX    TMP DP  RH WIND       PRES   REMARKS
DEFIANCE       CLOUDY    31  23  72 NW14      30.03R WCI  21
FINDLAY        CLOUDY    31  26  82 W14       30.00R WCI  21
TOLEDO EXPRESS CLOUDY    31  25  78 NW12      30.00R WCI  22
TOLEDO EXEC    CLOUDY    32  23  69 NW15      30.01R WCI  22
LIMA           CLOUDY    30  28  92 W14       30.02R WCI  19
$$

OHZ009>014-019>023-028>033-038-089-240500-
   NORTHEAST OHIO

CITY           SKY/WX    TMP DP  RH WIND       PRES   REMARKS
CLE-HOPKINS    FLURRIES  32  29  88 W15G23    29.98R WCI  22
CLE-LAKEFRONT  CLOUDY    32  27  81 W23G29    29.95R WCI  19
CUY CO. ARPT   CLOUDY    32  28  86 W22G28    29.94R WCI  19
LORAIN-ELYRIA  CLOUDY    31  24  75 W14G25    29.98R WCI  21
ASHTABULA      CLOUDY    31  28  89 W14G24    29.91R WCI  21
AKRON-CANTON   CLOUDY    33  25  72 W17G24    29.94R WCI  22
WOOSTER        CLOUDY    31  26  82 W16G28    29.96R WCI  20
MANSFIELD      CLOUDY    30  26  85 W14G25    29.97R WCI  19
YOUNGSTOWN     FLURRIES  32  27  81 W18G28    29.90R WCI  20
$$

OHZ042-051>053-060>062-070>072-077>081-240500-
  SOUTHWEST OHIO

CITY           SKY/WX    TMP DP  RH WIND       PRES   REMARKS
CINC-COVINGTON CLOUDY    33  31  92 W16       30.10R WCI  23
CINC-LUNKEN    MIX PCPN  35  31  85 W10       30.13R WCI  27
HAMILTON       CLOUDY    33  30  88 W9        30.12R WCI  25
DAYTON         FLURRIES  31  29  92 W16       30.07R WCI  20
WRIGHT-PAT AFB FLURRIES  32  28  83 W15G22    30.06R WCI  22
DAYTON GENERAL CLOUDY    32  27  81 W10       30.07R WCI  24
WILMINGTON     CLOUDY    32  31  96 W15G22    30.06R WCI  22
$$

OHZ036-037-039>041-045>050-054>059-063>069-073>076-082>088-240500-
  CENTRAL AND SOUTHEAST OHIO

CITY           SKY/WX    TMP DP  RH WIND       PRES   REMARKS
COLUMBUS       FLURRIES  34  30  85 W15       30.02R WCI  24
OSU AIRPORT    CLOUDY    33  29  85 W16       30.03R WCI  23
BOLTON FIELD   CLOUDY    33  29  85 W9G18     30.03S WCI  26
RICKENBACK AFB CLOUDY    34  32  92 W10G18    30.04R WCI  26
NEWARK         CLOUDY    35  28  75 W15       30.01R WCI  25
MARION         CLOUDY    31  25  78 W13       30.01R WCI  21
LANCASTER      CLOUDY    35  31  85 NW12G18   30.03R WCI  27
ZANESVILLE     CLOUDY    36  29  75 W12       30.00R
NEW PHILLY     CLOUDY    35  27  72 W12       29.98R WCI  27
$$




USA.gov is the U.S. government's official web portal to all federal, state and local government web resources and services.